Helena, Arkansas, United States (72342)
Lat: 34.53N, Lon: 90.59W
Wx Zone: ARZ058
Local Info
Past Weather Observations for Tuesday, February 24, 2015

NOTE: This archive is for the closest National Weather Service station to Helena. Information may differ from the station used for current weather conditions.

Click here for Long-term Archive

Time Weather Temperature Dewpoint Humidity Pressure Winds Precip Visibility
23:55
Clear
32°F / 0°C 28°F / -2°C 87% 30.06 in
(1018 mb)
S 3.5 mph
(S 6 kph)
- 10SM
23:35
Clear
32°F / 0°C 28°F / -2°C 87% 30.06 in
(1018 mb)
SW 4.6 mph
(SW 7 kph)
- 10SM
23:15
Clear
32°F / 0°C 28°F / -2°C 87% 30.06 in
(1018 mb)
SSE 5.8 mph
(SSE 9 kph)
- 10SM
22:55
Clear
32°F / 0°C 28°F / -2°C 87% 30.06 in
(1018 mb)
S 5.8 mph
(S 9 kph)
- 10SM
22:35
Clear
32°F / 0°C 28°F / -2°C 87% 30.06 in
(1018 mb)
S 4.6 mph
(S 7 kph)
- 10SM
22:15
Clear
32°F / 0°C 28°F / -2°C 87% 30.06 in
(1018 mb)
S 4.6 mph
(S 7 kph)
- 10SM
21:55
Clear
30°F / -1°C 28°F / -2°C 93% 30.06 in
(1018 mb)
S 3.5 mph
(S 6 kph)
- 10SM
21:35
Clear
30°F / -1°C 28°F / -2°C 93% 30.06 in
(1018 mb)
S 4.6 mph
(S 7 kph)
- 10SM
21:15
Clear
30°F / -1°C 28°F / -2°C 93% 30.06 in
(1018 mb)
S 5.8 mph
(S 9 kph)
- 10SM
20:55
Clear
32°F / 0°C 28°F / -2°C 87% 30.06 in
(1018 mb)
Calm - 10SM
20:35
Clear
32°F / 0°C 28°F / -2°C 87% 30.06 in
(1018 mb)
S 3.5 mph
(S 6 kph)
- 10SM
20:15
Clear
32°F / 0°C 27°F / -3°C 80% 30.06 in
(1018 mb)
Calm - 10SM
19:55
Clear
32°F / 0°C 27°F / -3°C 80% 30.06 in
(1018 mb)
S 3.5 mph
(S 6 kph)
- 10SM
19:35
Clear
32°F / 0°C 27°F / -3°C 80% 30.09 in
(1019 mb)
S 4.6 mph
(S 7 kph)
- 10SM
19:15
Clear
32°F / 0°C 27°F / -3°C 80% 30.09 in
(1019 mb)
SW 4.6 mph
(SW 7 kph)
- 10SM
18:55
Clear
32°F / 0°C 27°F / -3°C 80% 30.09 in
(1019 mb)
SW 6.9 mph
(SW 11 kph)
- 10SM
18:35
Clear
32°F / 0°C 27°F / -3°C 80% 30.09 in
(1019 mb)
SW 6.9 mph
(SW 11 kph)
- 10SM
18:15
Clear
32°F / 0°C 27°F / -3°C 80% 30.09 in
(1019 mb)
SW 5.8 mph
(SW 9 kph)
- 10SM
17:55
Clear
32°F / 0°C 28°F / -2°C 87% 30.09 in
(1019 mb)
SW 8.1 mph
(SW 13 kph)
- 10SM
17:35
Clear
32°F / 0°C 27°F / -3°C 80% 30.09 in
(1019 mb)
SSE 6.9 mph
(SSE 11 kph)
- 10SM
17:15
Clear
32°F / 0°C 27°F / -3°C 80% 30.09 in
(1019 mb)
SSE 4.6 mph
(SSE 7 kph)
- 10SM
16:55
Clear
34°F / 1°C 27°F / -3°C 75% 30.09 in
(1019 mb)
SSE 4.6 mph
(SSE 7 kph)
- 10SM
16:35
Clear
34°F / 1°C 27°F / -3°C 75% 30.09 in
(1019 mb)
SW 5.8 mph
(SW 9 kph)
- 10SM
16:15
Clear
34°F / 1°C 27°F / -3°C 75% 30.09 in
(1019 mb)
S 5.8 mph
(S 9 kph)
- 10SM
15:55
Partly Cloudy
34°F / 1°C 25°F / -4°C 70% 30.09 in
(1019 mb)
Calm - 10SM
14:55
Mostly Cloudy
32°F / 0°C 23°F / -5°C 69% 30.12 in
(1020 mb)
SW 3.5 mph
(SW 6 kph)
- 10SM
14:35
Overcast
32°F / 0°C 23°F / -5°C 69% 30.12 in
(1020 mb)
Calm - 10SM
14:15
Mostly Cloudy
32°F / 0°C 23°F / -5°C 69% 30.15 in
(1021 mb)
SSW 4.6 mph
(SSW 7 kph)
- 10SM
13:55
Clear
32°F / 0°C 23°F / -5°C 69% 30.15 in
(1021 mb)
Calm - 10SM
13:35
Partly Cloudy
32°F / 0°C 21°F / -6°C 64% 30.18 in
(1022 mb)
SW 3.5 mph
(SW 6 kph)
- 10SM
13:15
Mostly Cloudy
32°F / 0°C 21°F / -6°C 64% 30.18 in
(1022 mb)
Calm - 10SM
12:55
Mostly Cloudy
30°F / -1°C 21°F / -6°C 69% 30.18 in
(1022 mb)
SW 4.6 mph
(SW 7 kph)
- 10SM
12:35
Mostly Cloudy
30°F / -1°C 19°F / -7°C 64% 30.21 in
(1023 mb)
SSW 4.6 mph
(SSW 7 kph)
- 10SM
12:15
Partly Cloudy
30°F / -1°C 19°F / -7°C 64% 30.21 in
(1023 mb)
SW 3.5 mph
(SW 6 kph)
- 10SM
11:55
Partly Cloudy
28°F / -2°C 18°F / -8°C 64% 30.24 in
(1024 mb)
Calm - 10SM
11:35
Partly Cloudy
28°F / -2°C 19°F / -7°C 69% 30.24 in
(1024 mb)
Calm - 10SM
11:15
Partly Cloudy
28°F / -2°C 18°F / -8°C 64% 30.27 in
(1025 mb)
Calm - 10SM
10:55
Partly Cloudy
28°F / -2°C 19°F / -7°C 69% 30.27 in
(1025 mb)
Calm - 10SM
10:35
Overcast
27°F / -3°C 18°F / -8°C 69% 30.27 in
(1025 mb)
SSW 3.5 mph
(SSW 6 kph)
- 10SM
10:15
Overcast
27°F / -3°C 18°F / -8°C 69% 30.27 in
(1025 mb)
Calm - 10SM
09:55
Overcast
27°F / -3°C 18°F / -8°C 69% 30.27 in
(1025 mb)
SW 4.6 mph
(SW 7 kph)
- 10SM
09:35
Overcast
27°F / -3°C 18°F / -8°C 69% 30.3 in
(1026 mb)
Calm - 10SM
09:15
Overcast
27°F / -3°C 18°F / -8°C 69% 30.3 in
(1026 mb)
NW 3.5 mph
(NW 6 kph)
- 10SM
08:55
Overcast
27°F / -3°C 18°F / -8°C 69% 30.3 in
(1026 mb)
NW 4.6 mph
(NW 7 kph)
- 10SM
08:35
Overcast
27°F / -3°C 18°F / -8°C 69% 30.3 in
(1026 mb)
NNW 3.5 mph
(NNW 6 kph)
- 10SM
08:15
Overcast
25°F / -4°C 18°F / -8°C 74% 30.3 in
(1026 mb)
NNW 3.5 mph
(NNW 6 kph)
- 10SM
07:55
Overcast
25°F / -4°C 18°F / -8°C 74% 30.3 in
(1026 mb)
NNW 5.8 mph
(NNW 9 kph)
- 10SM
07:35
Overcast
25°F / -4°C 18°F / -8°C 74% 30.3 in
(1026 mb)
N 4.6 mph
(N 7 kph)
- 10SM
07:15
Overcast
23°F / -5°C 18°F / -8°C 80% 30.3 in
(1026 mb)
N 5.8 mph
(N 9 kph)
- 10SM
06:55
Overcast
23°F / -5°C 18°F / -8°C 80% 30.3 in
(1026 mb)
N 4.6 mph
(N 7 kph)
- 10SM
06:35
Overcast
23°F / -5°C 18°F / -8°C 80% 30.3 in
(1026 mb)
NNW 6.9 mph
(NNW 11 kph)
- 10SM
06:15
Overcast
23°F / -5°C 18°F / -8°C 80% 30.3 in
(1026 mb)
N 8.1 mph
(N 13 kph)
- 10SM
05:55
Overcast
23°F / -5°C 18°F / -8°C 80% 30.3 in
(1026 mb)
N 5.8 mph
(N 9 kph)
- 10SM
05:35
Overcast
23°F / -5°C 18°F / -8°C 80% 30.3 in
(1026 mb)
N 8.1 mph
(N 13 kph)
- 10SM
05:15
Overcast
23°F / -5°C 19°F / -7°C 86% 30.3 in
(1026 mb)
NNW 6.9 mph
(NNW 11 kph)
- 10SM
04:55
Overcast
23°F / -5°C 18°F / -8°C 80% 30.3 in
(1026 mb)
N 9.2 mph
(N 15 kph)
- 10SM
04:35
Overcast
23°F / -5°C 18°F / -8°C 80% 30.33 in
(1027 mb)
N 6.9 mph
(N 11 kph)
- 10SM
04:15
Overcast
23°F / -5°C 18°F / -8°C 80% 30.33 in
(1027 mb)
NNW 6.9 mph
(NNW 11 kph)
- 10SM
03:55
Overcast
23°F / -5°C 18°F / -8°C 80% 30.33 in
(1027 mb)
N 6.9 mph
(N 11 kph)
- 10SM
03:35
Overcast
23°F / -5°C 18°F / -8°C 80% 30.33 in
(1027 mb)
NNW 6.9 mph
(NNW 11 kph)
- 10SM
03:15
Overcast
23°F / -5°C 18°F / -8°C 80% 30.36 in
(1028 mb)
NNW 8.1 mph
(NNW 13 kph)
- 10SM
02:55
Overcast
23°F / -5°C 18°F / -8°C 80% 30.36 in
(1028 mb)
N 8.1 mph
(N 13 kph)
- 10SM
02:35
Overcast
23°F / -5°C 18°F / -8°C 80% 30.36 in
(1028 mb)
N 8.1 mph
(N 13 kph)
- 10SM
02:15
Overcast
23°F / -5°C 18°F / -8°C 80% 30.36 in
(1028 mb)
NNW 10.4 mph
(NNW 17 kph)
- 10SM
01:55
Mostly Cloudy
23°F / -5°C 18°F / -8°C 80% 30.36 in
(1028 mb)
N 9.2 mph
(N 15 kph)
- 10SM
01:35
Partly Cloudy
23°F / -5°C 18°F / -8°C 80% 30.36 in
(1028 mb)
NNW 6.9 mph
(NNW 11 kph)
- 10SM
01:15
Partly Cloudy
23°F / -5°C 18°F / -8°C 80% 30.36 in
(1028 mb)
N 6.9 mph
(N 11 kph)
- 10SM
00:55
Partly Cloudy
23°F / -5°C 18°F / -8°C 80% 30.36 in
(1028 mb)
N 5.8 mph
(N 9 kph)
- 10SM
00:35
Partly Cloudy
23°F / -5°C 18°F / -8°C 80% 30.39 in
(1029 mb)
N 6.9 mph
(N 11 kph)
- 10SM
00:15
Partly Cloudy
23°F / -5°C 18°F / -8°C 80% 30.39 in
(1029 mb)
N 8.1 mph
(N 13 kph)
- 10SM
Time Weather Temperature Dewpoint Humidity Pressure Winds Precip Visibility


Weather for websites

WeatherForYou.com, LLC is not responsible for any damages or problems caused by this service. Current weather conditions are obtained from the closest station including government and personal stations which may have varying degrees of accuracy. Weather forecasts are derived from the NOAA NDFD. Like all things, this site belongs to Jesus Christ... He just trusts me to maintain it. If you have any questions or comments email webmaster@weatherforyou.com

Copyright © 2015, WeatherForYou.com LLC. All rights reserved.